Weather History for Key West, FL

Change the Weather History Date:

Monday, June 17, 2013

  Actual Average Record
Temperature  
Mean Temperature 86 °F 84 °F  
Max Temperature 89 °F 88 °F 93 °F (1981)
Min Temperature 83 °F 79 °F 71 °F (1908)
Degree Days  
Heating Degree Days 0 0  
Month to date heating degree days 0 0  
Since 1 June heating degree days 0 0  
Since 1 July heating degree days 28 73  
Cooling Degree Days 21 18  
Month to date cooling degree days 293 303  
Year to date cooling degree days 1922 1733  
Since 1 June cooling degree days 293 303  
Growing Degree Days 36 (Base 50)    
Moisture  
Dew Point 76 °F    
Average Humidity 74    
Maximum Humidity 80    
Minimum Humidity 68    
Precipitation  
Precipitation 0.00 in 0.13 in 1.85 in (1908)
Month to date precipitation 7.00 2.35  
Year to date precipitation 21.79 12.98  
Snow  
Snow 0.00 in - - ()
Month to date snowfall 0.0  
Since 1 June snowfall 0.0  
Since 1 July snowfall 0.0  
Snow Depth 0.00 in    
Sea Level Pressure  
Sea Level Pressure 30.04 in    
Wind  
Wind Speed 12 mph (ESE)    
Max Wind Speed 17 mph    
Max Gust Speed 22 mph    
Visibility 10 miles    
Events      
T = Trace of Precipitation, MM = Missing Value Source: NWS Daily Summary

Daily Weather History Graph

Daily Weather History Graph

Search for Another Location

Airport:

Trip Planner

Search our weather history database for the weather conditions in past years. The results will help you decide how hot, cold, wet, or windy it might be!

Date:

Astronomy

Jun. 17, 2013 Rise Set
Actual Time 6:38 AM EDT 8:17 PM EDT
Civil Twilight 6:12 AM EDT 8:43 PM EDT
Nautical Twilight 5:41 AM EDT 9:14 PM EDT
Astronomical Twilight 5:09 AM EDT 9:46 PM EDT
Moon 2:25 PM EDT (6/17) 1:39 AM EDT (6/17)
Length of Visible Light 14h 30m
Length of Day
13h 39m
First Quarter, 60% of the Moon is Illuminated
Jun 17
First Quarter
Jun 23
Full
Jun 30
Last Quarter
Jul 8
New
Jul 15
First Quarter

Hourly Weather History & Observations

Time (EDT) Temp. Heat Index Dew Point Humidity Pressure Visibility Wind Dir Wind Speed Gust Speed Precip Events Conditions
12:53 AM 82.9 °F 89.4 °F 73.9 °F 74% 30.06 in 10.0 mi ESE 17.3 mph - N/A   Clear
1:53 AM 82.9 °F 90.2 °F 75.0 °F 77% 30.05 in 10.0 mi ESE 15.0 mph - N/A   Clear
2:53 AM 82.9 °F 90.2 °F 75.0 °F 77% 30.02 in 10.0 mi ESE 15.0 mph - N/A   Partly Cloudy
3:53 AM 82.9 °F 90.2 °F 75.0 °F 77% 30.00 in 10.0 mi ESE 12.7 mph - N/A   Partly Cloudy
4:53 AM 82.9 °F 90.2 °F 75.0 °F 77% 30.00 in 10.0 mi ESE 10.4 mph - N/A   Partly Cloudy
5:31 AM 82.4 °F 89.5 °F 75.2 °F 79% 30.00 in 10.0 mi ESE 10.4 mph - N/A   Mostly Cloudy
5:49 AM 82.4 °F 89.5 °F 75.2 °F 79% 30.01 in 10.0 mi East 8.1 mph - N/A   Scattered Clouds
5:53 AM 82.9 °F 90.2 °F 75.0 °F 77% 30.01 in 10.0 mi East 9.2 mph - N/A   Scattered Clouds
6:53 AM 82.9 °F 90.2 °F 75.0 °F 77% 30.02 in 10.0 mi ESE 9.2 mph - N/A   Mostly Cloudy
7:32 AM 82.4 °F 89.5 °F 75.2 °F 79% 30.03 in 10.0 mi ESE 9.2 mph - N/A   Scattered Clouds
7:45 AM 82.4 °F 89.5 °F 75.2 °F 79% 30.04 in 10.0 mi ESE 9.2 mph - N/A   Mostly Cloudy
7:53 AM 82.9 °F 90.8 °F 75.9 °F 79% 30.04 in 10.0 mi East 9.2 mph - N/A   Mostly Cloudy
8:53 AM 84.0 °F 92.6 °F 75.9 °F 76% 30.04 in 10.0 mi East 9.2 mph - N/A   Partly Cloudy
9:53 AM 86.0 °F 96.9 °F 77.0 °F 74% 30.05 in 10.0 mi East 9.2 mph - N/A   Partly Cloudy
10:53 AM 86.0 °F 96.9 °F 77.0 °F 74% 30.05 in 10.0 mi ESE 10.4 mph - N/A   Scattered Clouds
11:09 AM 86.0 °F 96.9 °F 77.0 °F 74% 30.06 in 10.0 mi East 12.7 mph - N/A   Mostly Cloudy
11:20 AM 87.8 °F 99.7 °F 77.0 °F 70% 30.06 in 10.0 mi ESE 12.7 mph - N/A   Scattered Clouds
11:53 AM 87.1 °F 98.8 °F 77.0 °F 72% 30.06 in 10.0 mi ESE 11.5 mph - N/A   Partly Cloudy
12:53 PM 87.1 °F 98.8 °F 77.0 °F 72% 30.05 in 10.0 mi East 13.8 mph - N/A   Partly Cloudy
1:53 PM 88.0 °F 100.2 °F 77.0 °F 70% 30.04 in 10.0 mi East 13.8 mph 20.7 mph N/A   Clear
2:53 PM 89.1 °F 101.4 °F 77.0 °F 67% 30.04 in 10.0 mi East 10.4 mph - N/A   Clear
3:53 PM 88.0 °F 100.2 °F 77.0 °F 70% 30.02 in 10.0 mi ESE 13.8 mph - N/A   Partly Cloudy
4:53 PM 88.0 °F 100.2 °F 77.0 °F 70% 30.02 in 10.0 mi East 12.7 mph - N/A   Partly Cloudy
5:53 PM 87.1 °F 98.8 °F 77.0 °F 72% 30.02 in 10.0 mi ESE 13.8 mph - N/A   Clear
6:53 PM 86.0 °F 96.0 °F 75.9 °F 72% 30.01 in 10.0 mi ESE 13.8 mph - N/A   Clear
7:53 PM 84.9 °F 94.1 °F 75.9 °F 74% 30.03 in 10.0 mi ESE 13.8 mph - N/A   Partly Cloudy
8:42 PM 84.2 °F 94.1 °F 77.0 °F 79% 30.04 in 10.0 mi ESE 12.7 mph - N/A   Mostly Cloudy
8:53 PM 84.0 °F 92.6 °F 75.9 °F 76% 30.04 in 10.0 mi ESE 15.0 mph - N/A   Scattered Clouds
9:53 PM 84.0 °F 93.7 °F 77.0 °F 79% 30.05 in 10.0 mi ESE 15.0 mph - N/A   Scattered Clouds
10:04 PM 84.2 °F 94.1 °F 77.0 °F 79% 30.05 in 10.0 mi ESE 13.8 mph - N/A   Mostly Cloudy
10:41 PM 84.2 °F 94.1 °F 77.0 °F 79% 30.05 in 10.0 mi ESE 13.8 mph - N/A   Scattered Clouds
10:53 PM 84.0 °F 92.6 °F 75.9 °F 76% 30.05 in 10.0 mi ESE 13.8 mph - N/A   Partly Cloudy
11:53 PM 84.0 °F 92.6 °F 75.9 °F 76% 30.05 in 10.0 mi ESE 15.0 mph - N/A   Clear